GFSCGP_700_rhum_309.txt.gz
RH
32 34 34 26 21 15 14 14 13 11 10 8 8 9 8 10 10 14 18 29 28 25 32 45 67 54 44 20 15 9 8 9 8 10 10 10 11 13 14 15 18 20 28 41
49 46 31 23 23 20 18 15 13 11 9 8 8 7 7 8 10 13 14 20 27 25 36 33 58 62 46 37 37 22 9 9 8 10 10 12 14 15 16 19 19 23 51 59
60 45 31 33 27 23 19 16 13 11 9 10 7 6 7 8 9 11 12 15 22 25 30 30 33 63 54 36 38 38 25 9 9 11 12 14 18 19 24 25 28 41 55 59
52 50 39 30 32 25 21 15 12 12 11 13 10 9 8 7 8 9 10 11 16 30 31 30 28 36 62 48 37 41 37 22 9 11 12 14 19 23 23 27 36 54 59 58
46 49 39 28 29 27 24 18 15 11 12 12 12 8 8 8 9 8 9 9 15 32 34 35 33 33 41 50 44 39 41 36 13 14 15 16 21 26 28 30 40 59 66 68
69 49 39 25 25 26 21 20 16 14 12 16 13 10 8 7 8 8 8 8 10 30 30 30 34 37 38 43 51 54 54 48 17 11 14 16 18 28 30 33 32 43 57 63
61 54 34 25 24 24 23 19 19 20 19 20 12 12 10 8 8 9 7 7 8 22 35 44 46 49 58 73 63 52 54 56 26 17 15 13 13 17 25 26 22 28 25 23
96 55 40 27 24 22 22 20 20 30 30 17 12 13 11 10 10 11 7 7 7 20 42 47 52 55 63 58 48 57 54 61 52 22 19 21 20 17 19 20 21 34 38 36
97 59 39 37 25 26 22 20 15 18 17 23 13 11 10 12 9 10 12 8 9 14 52 59 53 46 49 73 60 53 78 74 60 32 30 27 25 21 22 25 44 64 71 62
90 92 47 37 28 29 34 24 20 16 29 29 19 13 13 16 21 17 27 27 24 37 58 63 68 56 72 74 66 93 81 80 53 43 38 36 29 35 38 48 58 80 75 84
43 98 56 53 90 78 60 67 42 30 20 28 29 21 25 16 12 15 28 48 41 37 42 47 56 54 76 69 56 50 93 80 78 63 60 51 44 56 66 67 73 73 79 82
61 96 98 62 67 95 77 74 88 73 48 34 20 25 27 32 42 25 20 45 53 52 56 60 44 44 55 63 70 59 100 98 94 88 85 75 70 78 91 84 80 80 91 83
69 71 82 56 85 91 92 86 82 68 52 51 38 51 50 30 40 43 33 50 63 61 56 67 64 71 71 76 65 43 26 48 99 98 96 95 95 99 98 98 99 95 99 86
78 73 72 81 74 84 90 92 95 94 70 68 45 63 58 58 40 42 45 41 38 32 40 49 60 63 70 55 42 38 79 82 74 90 100 94 100 92 92 100 97 75 78 95
74 74 65 67 54 51 50 78 93 96 87 69 50 69 82 76 69 60 48 44 50 48 34 24 38 46 35 72 60 74 85 92 97 84 92 91 84 98 85 64 90 92 99 99
63 73 70 64 57 51 48 41 52 85 92 67 60 72 98 91 75 74 69 63 74 71 57 38 39 53 50 34 51 68 96 99 92 91 100 91 86 80 66 72 73 71 65 70
70 62 66 68 56 53 41 67 72 91 96 87 64 100 99 94 96 88 84 81 82 84 84 71 63 64 66 66 37 42 88 86 72 64 74 91 89 73 69 72 71 64 63 63
62 59 58 64 60 74 44 41 55 50 65 95 91 98 97 97 97 86 70 76 78 79 80 84 90 77 73 57 47 36 39 40 44 51 61 68 72 72 73 66 70 74 67 68
54 53 56 62 63 56 32 42 52 60 51 61 96 96 97 96 97 92 78 75 68 70 73 70 73 85 75 63 46 31 25 22 24 32 36 35 36 38 39 42 48 60 66 68
39 54 63 57 66 75 46 68 60 54 45 46 70 95 96 96 97 97 90 86 76 69 57 50 45 48 57 58 60 56 51 43 43 43 45 43 39 41 41 41 43 42 40 43
55 69 89 78 68 56 56 69 82 69 75 67 67 73 95 96 95 94 98 96 94 74 59 50 44 42 38 31 28 36 39 44 45 43 43 44 41 36 33 30 30 30 32 43
87 94 93 93 82 86 90 85 95 97 100 88 69 88 96 96 96 93 90 93 93 92 94 73 67 55 44 42 34 26 23 20 19 21 30 34 38 40 39 38 36 36 40 40
82 82 74 63 67 60 95 98 86 96 97 95 98 68 64 93 95 96 96 95 96 90 86 89 70 65 63 57 49 38 31 27 23 20 17 15 15 14 17 28 35 37 37 37
72 84 96 89 58 44 33 88 96 94 90 95 98 95 97 92 72 71 84 90 95 90 87 87 93 73 63 61 58 51 44 38 32 26 23 20 19 19 18 17 15 12 12 19
82 68 60 58 46 48 32 76 94 76 95 94 96 95 95 97 89 85 81 69 59 70 83 77 69 70 86 83 62 54 50 43 37 30 25 23 20 18 18 18 17 16 15 16
71 80 93 95 96 98 54 69 77 83 72 91 93 94 97 95 95 93 95 77 65 56 54 71 69 67 67 66 60 60 52 53 46 40 30 25 24 20 18 15 13 12 12 12

GFSCGP_700_rhum_312.txt.gz
RH
33 40 34 19 32 29 32 23 17 13 12 12 11 10 9 9 9 9 38 32 28 28 29 26 27 39 49 33 26 9 6 6 5 5 5 6 7 7 8 9 10 12 17 22
49 51 15 27 41 39 39 36 25 15 13 12 10 10 9 8 8 9 11 35 22 25 35 34 26 33 52 40 20 17 8 6 6 6 6 7 7 8 9 11 13 15 20 61
70 38 15 32 44 44 37 32 29 18 14 14 12 10 9 8 8 9 10 10 14 18 24 32 26 27 35 46 32 17 10 8 7 7 8 9 10 11 12 14 15 18 21 32
70 45 50 45 54 45 36 32 26 20 17 16 12 13 11 9 8 8 8 9 11 15 28 25 24 26 24 38 43 33 33 14 9 9 9 9 10 12 14 16 18 20 26 46
68 73 70 55 48 42 36 32 26 22 19 16 15 15 12 11 10 7 8 8 9 12 16 29 27 26 26 23 25 42 43 35 14 12 12 10 10 12 15 17 22 26 32 50
59 66 59 58 52 38 32 33 28 23 19 22 15 15 13 12 10 8 6 8 9 11 11 18 26 32 29 32 28 30 42 35 38 22 15 14 13 14 17 21 24 34 52 50
57 47 49 64 63 37 28 31 34 34 30 29 17 16 14 10 10 9 7 8 9 10 9 10 19 40 38 38 37 36 47 55 56 55 28 17 18 16 17 20 26 31 48 50
96 77 76 67 77 49 28 26 34 37 30 21 16 17 14 11 11 10 9 9 9 8 8 9 20 37 36 32 41 42 38 56 69 61 56 22 22 21 22 32 30 31 39 47
87 87 87 82 74 50 33 25 25 25 20 28 18 14 13 13 12 11 11 9 8 9 8 8 13 33 33 45 50 50 50 59 72 79 74 49 24 26 25 26 36 38 35 33
73 97 96 91 69 60 46 42 37 27 34 32 23 14 13 12 11 11 12 10 9 11 10 9 12 29 40 51 49 55 48 42 47 64 83 79 32 26 29 28 27 26 34 41
75 97 68 95 93 98 67 83 71 58 47 28 32 22 35 27 13 12 14 15 11 19 13 13 19 35 51 57 50 57 60 49 51 71 96 89 62 31 31 36 39 41 39 50
84 92 74 89 98 97 97 99 100 95 82 60 44 50 74 44 34 22 18 20 23 29 33 27 28 42 55 60 56 64 59 59 68 82 85 100 96 52 38 43 46 39 49 74
82 80 69 56 85 68 83 94 94 96 85 70 68 76 96 97 86 65 47 46 53 59 41 45 49 51 58 65 75 59 61 65 68 60 76 97 99 96 74 62 52 46 53 73
66 76 74 85 81 69 68 86 96 96 92 82 56 80 96 99 93 87 77 67 79 99 55 44 52 61 62 62 63 66 62 68 66 69 76 67 99 96 99 99 96 85 79 86
66 82 69 73 52 61 60 62 70 87 95 95 64 88 99 98 100 89 79 68 63 72 90 81 61 58 55 59 60 59 69 62 72 51 42 29 39 95 98 99 100 98 98 100
64 74 69 64 57 52 48 62 93 96 95 95 72 98 98 98 98 100 91 83 77 67 62 59 96 93 81 84 83 71 76 67 96 95 99 91 90 100 76 58 73 70 84 98
60 63 75 76 65 62 40 48 68 83 87 97 95 96 97 97 98 99 99 96 87 86 83 75 64 96 100 100 88 77 97 97 99 97 98 100 92 77 81 85 96 84 96 98
69 75 84 86 64 81 43 46 69 68 83 81 96 96 97 96 97 97 98 98 93 96 94 94 100 97 99 100 100 100 99 100 100 100 99 98 100 100 100 98 99 100 98 100
52 51 62 90 67 62 70 83 79 85 62 72 71 93 97 96 96 97 97 96 95 90 88 98 100 100 100 100 100 98 91 90 97 98 99 100 100 100 100 100 100 100 100 99
42 45 62 92 78 78 96 75 67 69 75 79 89 96 91 97 95 96 96 97 96 92 75 90 100 100 100 100 100 100 82 72 77 77 74 72 74 74 77 87 97 98 100 100
94 74 75 69 93 96 99 69 69 78 96 93 97 96 97 95 97 95 94 97 97 96 83 60 65 69 86 98 100 100 97 75 70 71 69 59 50 54 54 55 55 58 58 68
87 97 88 86 95 95 92 86 89 79 80 92 97 97 97 97 97 97 94 95 96 95 94 85 67 60 54 42 45 47 44 40 43 45 49 54 57 57 52 49 44 43 43 47
86 98 96 98 94 98 94 89 79 60 50 43 83 96 97 92 95 95 97 97 96 97 96 94 92 68 66 58 46 42 34 28 24 23 22 21 23 32 44 49 52 53 50 52
86 62 83 80 78 78 81 79 82 74 55 38 38 86 96 100 96 94 93 94 96 95 94 94 95 95 93 70 64 57 43 36 31 26 22 19 17 16 15 16 23 29 35 40
71 69 68 77 56 65 82 77 72 64 57 64 72 45 74 98 99 97 94 87 72 80 89 82 79 82 87 91 89 78 74 63 48 37 30 27 24 21 19 18 16 16 15 15
89 95 89 86 73 85 70 63 56 48 41 39 40 45 59 73 94 97 97 95 92 82 67 79 76 72 70 79 86 85 90 75 68 64 45 32 28 25 23 21 19 19 19 19

GFSCGP_700_rhum_315.txt.gz
RH
21 17 7 4 31 29 33 32 39 33 23 18 10 8 7 10 12 11 11 11 40 54 49 32 28 32 55 56 12 9 6 5 6 8 10 13 15 18 18 16 15 16 16 13
38 28 25 26 24 30 42 43 37 29 33 23 14 11 8 10 11 10 10 14 19 50 50 43 39 38 37 55 35 11 9 6 5 5 6 9 13 14 15 16 15 16 15 12
69 25 59 75 54 57 31 46 40 40 36 28 20 15 12 10 10 10 9 11 13 24 46 44 35 32 27 33 53 19 11 8 6 6 7 9 11 12 12 11 12 12 12 14
48 63 83 80 77 66 67 17 47 43 36 28 20 17 14 12 10 10 9 8 11 16 42 39 32 25 27 26 31 54 20 14 9 8 6 6 6 7 7 8 10 11 15 18
54 58 64 71 70 69 68 30 41 42 37 29 19 16 14 13 11 9 9 8 8 12 12 37 33 25 21 24 28 35 50 25 22 10 8 8 8 8 8 9 10 13 16 19
33 90 90 99 83 76 63 55 50 39 34 30 24 18 16 14 11 10 11 10 8 8 11 14 18 21 26 23 26 30 50 50 31 28 13 10 9 9 10 12 13 15 17 20
29 48 96 98 77 68 68 61 48 44 36 34 23 21 19 15 11 10 10 10 10 8 8 9 13 16 21 28 30 29 37 59 47 44 27 13 11 10 11 12 14 16 22 25
64 58 64 95 96 96 79 75 43 51 45 34 24 23 19 15 12 11 11 10 9 7 7 8 10 12 14 21 26 31 33 43 51 52 56 36 16 14 13 14 15 18 22 30
75 68 43 97 97 96 70 57 34 34 27 31 22 21 19 17 15 14 10 11 9 8 7 8 9 10 10 10 18 30 36 42 46 56 67 68 55 22 16 17 18 24 29 36
88 86 59 89 93 93 95 74 58 39 41 39 27 21 54 30 17 13 12 13 16 10 9 10 9 9 10 10 17 32 36 44 45 50 59 63 65 65 40 22 21 22 32 43
83 90 64 74 95 95 82 93 97 85 64 40 35 68 100 66 46 48 26 13 12 15 12 10 11 10 10 9 13 27 39 52 46 63 68 72 72 66 78 54 26 25 29 55
84 96 84 63 96 95 96 96 96 91 88 81 67 97 100 99 99 66 42 13 11 11 10 11 12 13 13 11 14 18 47 50 52 60 58 60 68 80 92 92 66 31 31 38
74 76 81 48 49 72 80 73 96 95 99 82 81 88 99 100 97 100 99 57 20 15 16 14 16 18 19 23 35 45 58 56 49 52 56 65 77 96 99 99 98 65 37 44
72 73 79 88 84 70 73 56 67 96 98 97 94 97 100 98 99 100 100 100 92 60 49 33 35 41 33 33 40 49 58 60 64 60 62 70 89 93 99 98 99 95 63 54
62 80 68 70 57 64 52 57 88 97 95 96 96 97 97 99 100 100 97 91 99 99 99 86 83 95 80 65 52 64 72 71 69 68 75 90 90 89 98 100 77 100 98 84
63 66 75 73 54 59 62 65 55 92 95 96 97 96 96 97 100 100 100 98 83 72 98 98 100 100 94 66 76 82 86 78 90 78 78 78 68 78 93 81 69 81 100 100
67 71 69 78 64 54 68 76 81 95 97 95 95 97 97 96 97 98 98 99 100 92 74 64 89 100 100 84 62 76 84 99 88 72 87 87 64 70 78 62 94 96 80 77
81 81 63 66 74 81 66 86 97 97 95 94 96 97 96 96 96 96 97 98 99 100 90 77 66 95 99 100 100 99 86 77 77 74 87 86 80 81 98 97 94 82 88 92
96 96 80 75 89 65 63 79 84 96 94 96 94 96 95 94 96 90 96 97 96 98 100 100 100 97 100 98 100 100 100 94 70 89 78 99 98 98 100 97 76 86 97 98
60 57 92 82 77 94 99 82 92 96 98 94 96 96 97 96 98 96 93 91 96 98 98 99 99 100 100 98 99 100 100 100 100 100 100 100 97 98 98 100 98 97 97 97
60 47 91 95 84 96 90 84 88 86 89 81 89 95 96 95 97 97 97 91 94 96 96 96 97 97 99 100 100 100 100 99 99 99 100 100 94 100 99 100 100 100 100 100
69 97 97 86 97 97 87 74 88 96 94 88 88 92 91 97 96 96 97 97 95 95 94 91 88 95 95 96 93 97 98 97 97 100 100 99 97 94 97 97 93 95 97 100
77 100 99 96 85 98 91 97 94 94 78 68 69 90 81 87 96 96 96 95 97 97 96 95 96 95 94 94 84 62 46 46 45 53 60 69 87 88 88 99 100 99 100 100
51 71 78 81 79 82 78 88 97 74 78 68 59 56 64 67 65 90 97 96 93 95 96 93 95 96 95 95 94 65 59 50 38 32 29 26 27 36 61 82 91 92 89 86
97 97 98 73 70 76 86 67 64 61 55 50 41 36 36 40 52 53 82 97 90 92 92 90 89 86 93 94 95 95 90 74 72 60 43 32 26 23 22 21 21 27 40 56
85 100 96 96 94 92 94 84 78 69 63 58 60 45 28 26 24 28 32 59 95 92 97 86 89 94 85 86 89 92 94 95 92 86 69 60 44 33 27 23 21 19 18 17

GFSCGP_700_rhum_318.txt.gz
RH
13 15 18 27 35 42 44 40 36 29 34 35 27 17 12 12 9 12 10 10 10 28 54 61 64 62 73 78 73 31 14 6 7 13 34 36 27 18 15 13 14 14 15 16
12 26 39 48 54 63 60 49 40 30 42 32 32 24 19 15 11 6 10 10 10 12 41 47 54 62 64 71 75 38 14 6 6 10 18 29 27 21 17 17 16 17 18 18
30 48 71 86 81 80 74 79 43 41 48 46 40 32 28 16 14 9 9 10 10 11 13 41 43 62 55 43 53 55 15 8 6 7 15 20 21 18 18 18 18 18 19 19
28 32 59 55 73 74 75 54 71 69 56 45 38 38 28 21 15 12 8 11 10 10 13 23 42 48 50 33 41 60 41 12 7 6 10 13 12 15 15 16 17 16 15 15
14 40 93 85 100 98 78 69 76 84 67 49 40 32 25 23 19 13 7 10 10 10 12 16 23 40 44 33 31 36 59 30 10 7 7 9 10 12 14 14 15 14 14 14
10 48 65 87 92 87 79 79 79 83 66 62 45 38 28 21 16 13 10 7 10 9 10 11 16 34 35 40 39 40 63 65 30 11 9 7 7 9 10 11 12 12 13 12
14 21 25 59 73 56 69 89 85 89 79 67 44 38 33 21 17 14 11 8 9 10 9 8 10 29 37 42 39 38 44 53 58 40 26 10 8 8 8 9 10 10 10 11
66 50 31 63 94 97 70 95 92 72 59 44 39 38 32 26 18 17 13 12 12 12 11 10 8 12 30 20 27 34 34 38 52 58 52 42 16 10 9 9 10 10 11 12
81 70 22 66 93 96 84 97 97 97 55 44 36 32 33 32 28 19 15 14 13 12 12 11 8 9 11 18 21 13 30 33 42 42 46 63 52 20 11 11 12 12 13 15
82 93 34 40 77 92 93 97 97 96 76 70 36 53 85 44 26 26 19 16 14 11 12 10 9 8 8 9 11 13 18 27 28 38 50 50 52 52 25 16 15 14 15 16
89 93 56 65 62 98 88 96 94 97 97 81 59 96 98 100 98 86 31 16 12 12 15 12 8 7 7 8 12 12 11 15 29 41 51 59 60 64 61 48 28 20 20 20
98 85 83 49 50 78 49 95 97 96 88 90 78 97 100 99 99 99 100 70 26 28 16 17 10 7 7 9 12 12 11 15 30 42 49 63 59 70 66 76 84 82 61 30
98 78 87 57 39 55 75 57 95 97 96 96 93 96 97 99 100 100 100 100 83 52 27 17 16 11 9 11 13 15 16 14 31 54 55 61 60 62 66 65 77 80 92 63
95 76 80 90 75 73 87 64 84 96 96 96 97 96 94 98 99 99 100 100 99 98 90 41 25 26 19 20 20 18 18 29 43 51 60 64 63 63 64 69 74 82 96 97
86 91 70 73 65 68 66 68 91 96 97 95 96 96 98 95 98 100 98 99 99 100 100 98 99 80 60 43 37 35 33 36 44 48 58 65 63 64 68 70 75 80 91 99
84 90 79 76 52 54 58 88 97 90 94 94 93 94 98 97 96 98 99 100 99 98 100 100 100 100 100 88 76 55 43 43 43 51 59 71 72 72 69 80 74 98 96 98
100 98 97 85 48 57 82 96 97 97 96 95 92 98 97 97 94 96 97 99 100 99 99 98 99 100 100 100 99 98 82 83 66 72 80 76 81 74 80 84 89 85 98 95
93 87 97 81 72 75 98 99 96 98 95 96 96 95 96 96 97 96 95 96 98 100 100 99 100 94 100 100 100 100 100 100 88 95 97 97 98 99 88 72 68 80 80 87
69 88 89 96 84 56 90 84 94 96 98 97 96 96 96 97 97 96 96 95 96 96 98 98 99 100 100 99 100 100 99 100 99 94 95 76 90 100 95 78 91 89 95 98
37 47 95 93 86 88 100 87 85 97 99 94 96 95 94 96 79 96 96 97 95 96 96 97 98 98 99 100 99 99 100 100 100 98 100 100 98 100 91 92 72 98 92 100
49 36 98 84 95 98 88 72 89 90 98 90 97 96 95 94 97 97 96 96 98 98 96 95 96 96 97 98 99 100 98 99 99 100 99 100 100 100 100 85 95 79 92 95
63 98 98 76 96 95 77 77 85 99 92 84 71 74 92 96 95 94 97 97 96 95 98 96 97 96 95 96 95 96 98 100 99 98 100 99 99 100 100 97 82 99 100 83
84 99 100 100 81 99 88 100 100 96 78 79 62 47 44 56 74 92 95 96 97 95 96 96 96 96 95 94 91 96 92 83 94 98 96 98 98 100 95 91 100 94 97 99
76 95 94 83 87 74 88 82 59 57 59 57 51 43 36 33 36 48 69 94 95 97 95 94 89 88 93 97 96 90 94 74 59 55 63 80 98 100 99 99 100 100 100 100
80 93 100 100 92 65 76 81 96 98 87 72 54 53 43 42 38 41 32 42 78 84 95 95 94 90 92 93 87 96 95 95 89 71 51 38 39 56 76 91 98 100 100 100
100 100 100 100 92 79 79 88 90 97 92 75 69 64 59 45 49 56 44 33 32 36 46 90 96 94 96 94 96 90 91 92 95 95 81 67 55 39 32 31 33 49 76 96

GFSCGP_700_rhum_321.txt.gz
RH
5 10 26 46 55 68 64 66 62 30 49 45 35 25 22 16 12 10 9 5 10 16 14 14 40 50 56 62 70 81 58 42 8 10 34 56 53 31 21 15 14 14 14 12
10 29 22 40 53 57 57 72 38 59 41 46 41 33 32 23 18 14 10 10 9 12 12 18 41 53 56 61 70 80 68 49 15 7 18 52 43 22 19 15 15 14 12 10
10 23 26 76 81 62 68 76 68 78 82 75 61 44 34 14 10 14 9 9 10 11 11 18 45 55 55 60 69 72 60 37 21 7 10 42 44 21 18 16 14 12 11 11
7 29 76 39 95 93 76 64 78 98 89 67 46 33 26 18 7 9 13 8 6 11 10 12 31 56 59 47 62 68 69 44 22 8 7 14 40 34 25 19 14 12 13 14
10 47 54 80 61 78 74 84 73 78 100 87 66 55 31 26 14 4 5 8 7 7 10 10 24 44 45 60 58 56 59 58 24 10 6 8 19 32 27 22 18 16 16 16
8 26 46 48 52 76 94 86 71 77 88 92 64 53 28 24 20 10 4 9 8 5 9 10 12 21 40 47 60 52 51 62 37 14 7 7 10 18 23 21 19 18 18 18
16 13 28 41 40 64 88 95 61 68 82 61 47 57 40 24 20 22 16 8 10 6 8 10 10 12 27 45 45 47 50 52 60 30 11 7 7 10 17 18 17 17 17 17
69 39 32 57 72 93 89 97 92 84 59 42 45 45 39 31 26 23 23 18 13 11 8 10 10 9 14 40 39 44 50 53 49 58 30 10 8 8 11 15 17 16 16 16
78 57 19 64 54 87 80 94 99 97 73 91 43 38 43 71 60 53 27 21 15 14 13 11 10 9 9 13 33 36 44 50 40 42 61 33 15 9 8 9 13 15 16 16
80 85 40 27 58 67 98 93 87 88 86 82 36 42 77 77 98 93 67 22 19 14 14 13 11 10 8 8 20 33 40 46 39 37 49 49 52 37 22 10 10 11 13 15
57 97 66 66 50 61 87 90 98 99 97 89 82 95 97 99 98 99 99 60 24 15 13 14 12 12 10 8 11 31 25 26 32 48 50 49 45 54 58 54 21 12 14 16
49 95 90 66 42 69 72 80 96 94 78 93 96 96 97 98 100 100 100 100 91 37 17 14 12 12 11 8 8 16 20 20 25 41 48 60 54 62 62 55 65 29 16 18
84 100 85 40 45 62 77 52 90 97 96 97 91 95 95 97 96 100 97 100 100 99 42 19 13 17 11 9 8 9 11 15 18 36 47 50 64 64 60 56 69 76 36 25
91 95 93 72 77 81 94 90 97 94 96 97 98 97 93 97 96 96 100 100 100 99 99 92 82 41 20 22 18 11 10 14 17 30 37 45 56 65 69 67 82 88 91 76
96 100 98 100 86 70 84 96 95 93 97 96 97 97 96 99 96 95 97 99 100 100 100 98 97 99 98 92 38 28 23 18 21 29 29 35 45 62 70 71 72 79 97 94
98 99 77 94 45 74 87 97 96 100 94 97 96 96 98 96 98 94 95 98 98 100 100 100 100 100 99 100 99 86 38 28 35 36 35 42 48 61 70 72 72 77 80 74
80 77 98 76 58 75 95 97 97 97 96 98 96 98 98 95 95 93 96 95 97 97 100 99 100 100 100 100 100 100 84 53 48 51 48 47 46 57 78 81 77 75 77 87
52 54 79 81 78 84 98 96 97 99 96 97 97 96 96 97 97 98 97 96 96 96 98 99 100 100 100 100 100 100 100 100 100 92 63 57 82 80 80 81 81 83 83 83
48 48 71 93 80 76 85 87 92 98 99 98 98 96 96 96 97 91 93 98 96 96 98 97 99 98 100 99 100 100 100 99 100 100 99 100 100 100 99 97 90 88 91 79
58 67 98 94 83 88 100 78 98 97 92 90 96 97 96 93 86 95 95 96 95 95 96 97 96 97 97 97 97 99 100 100 100 100 100 100 98 100 100 99 98 94 84 90
73 72 78 72 97 99 85 68 91 84 99 92 83 65 83 95 98 97 96 97 97 96 95 96 96 94 95 97 97 99 98 100 100 100 100 100 99 98 98 98 100 100 79 96
90 97 93 89 82 89 99 89 86 98 76 69 62 53 43 49 66 93 95 95 96 97 96 95 96 94 97 97 94 96 97 98 98 100 99 100 100 100 100 100 100 93 90 98
99 100 100 100 100 100 98 99 87 83 68 72 78 64 46 39 34 41 76 93 94 96 97 96 95 96 92 93 96 93 91 95 90 96 99 99 99 100 99 100 99 99 100 96
86 98 98 100 89 86 73 74 74 78 82 83 84 76 65 53 47 38 33 54 85 92 94 94 94 91 91 90 91 96 95 95 78 69 67 93 98 100 99 98 98 99 95 68
92 81 78 86 73 48 44 43 43 42 51 60 60 63 58 56 40 35 39 33 36 57 69 81 67 96 94 94 92 93 94 96 94 92 71 61 72 92 97 97 99 100 100 100
68 60 62 73 53 51 47 41 37 33 34 32 28 26 27 29 34 42 34 30 30 30 27 35 56 66 86 95 95 93 92 94 94 95 95 88 70 61 71 90 95 96 98 100